Eastsound, WA
on Sunday, January 6, 2013

Sunday
Previous Day Next Day
Daily Summary
 ActualAverage (KBLI)Record (KBLI)
Temperature
Mean Temperature °F 38°F  
Max Temperature 44°F 45°F 58°F (2002)
Min Temperature 41°F 32°F 1°F (1982)
Degree Days
Heating Degree Days 22 27  
Month to date heating degree days 162  
Cooling Degree Days 0 0  
Month to date cooling degree days 0  
Year to date cooling degree days 0  
Moisture
Dew Point 39°F   
Average Humidity 90    
Maximum Humidity 93    
Minimum Humidity 81    
Precipitation
Precipitation 0.08 in 0.14 in 1.52 in (2009)
Month to date precipitation 0.85  
Year to date precipitation 0.85  
Wind
Wind Speed 6 mph   
Max Wind Speed 15 mph   
Max Gust Speed 24 mph   
Visibility 8 miles   
Events Rain   

Key: T is trace of precipitation, MM is missing value
Source: NWS Daily Summary
Time(PST)TemperatureDew PointHumidity Pressure Visibility Wind DirectionWind SpeedGust SpeedPrecipitationEvents Conditions
12:15 AM 41.0°F 37.4°F 87% 30.08 in 10.0 miles South 5.8 mph - N/A   Clear
12:35 AM 41.0°F 37.4°F 87% 30.08 in 10.0 miles South 6.9 mph - N/A   Clear
12:55 AM 41.0°F 37.4°F 87% 30.09 in 10.0 miles SSW 8.1 mph - N/A   Clear
1:15 AM 41.0°F 37.4°F 87% 30.09 in 10.0 miles SSW 6.9 mph - N/A   Clear
1:35 AM 41.0°F 37.4°F 87% 30.10 in 10.0 miles South 5.8 mph - N/A   Clear
2:15 AM 41.0°F 37.4°F 87% 30.11 in 10.0 miles North - - N/A   Clear
2:35 AM 41.0°F 39.2°F 93% 30.11 in 10.0 miles SSE 3.5 mph - N/A   Partly Cloudy
2:55 AM 41.0°F 39.2°F 93% 30.11 in 10.0 miles SSW 6.9 mph - N/A   Partly Cloudy
3:15 AM 41.0°F 39.2°F 93% 30.10 in 10.0 miles SSW 6.9 mph - N/A   Mostly Cloudy
3:55 AM 41.0°F 39.2°F 93% 30.11 in 10.0 miles South 3.5 mph - N/A   Mostly Cloudy
4:15 AM 42.8°F 41.0°F 93% 30.10 in 10.0 miles South 3.5 mph - N/A   Mostly Cloudy
4:35 AM 42.8°F 39.2°F 87% 30.11 in 10.0 miles South 6.9 mph - N/A   Overcast
4:55 AM 42.8°F 39.2°F 87% 30.11 in 10.0 miles South 6.9 mph - N/A   Overcast
5:15 AM 41.0°F 39.2°F 93% 30.10 in 10.0 miles South 9.2 mph - N/A   Overcast
5:35 AM 41.0°F 39.2°F 93% 30.10 in 10.0 miles South 6.9 mph - N/A   Mostly Cloudy
6:15 AM 41.0°F 39.2°F 93% 30.09 in 10.0 miles SSW 12.7 mph - N/A   Overcast
6:35 AM 41.0°F 39.2°F 93% 30.09 in 10.0 miles South 4.6 mph - N/A   Mostly Cloudy
6:55 AM 41.0°F 39.2°F 93% 30.10 in 10.0 miles South 4.6 mph - N/A   Mostly Cloudy
7:15 AM 41.0°F 39.2°F 93% 30.10 in 10.0 miles South 5.8 mph - N/A   Scattered Clouds
7:35 AM 41.0°F 39.2°F 93% 30.10 in 10.0 miles South 6.9 mph - N/A   Clear
7:55 AM 41.0°F 37.4°F 87% 30.11 in 10.0 miles South 8.1 mph - N/A   Clear
8:15 AM 41.0°F 39.2°F 93% 30.11 in 10.0 miles South 11.5 mph - N/A   Clear
8:35 AM 41.0°F 39.2°F 93% 30.11 in 10.0 miles South 8.1 mph - N/A   Clear
9:15 AM 41.0°F 39.2°F 93% 30.11 in 10.0 miles South 10.4 mph 16.1 mph N/A   Partly Cloudy
9:35 AM 41.0°F 39.2°F 93% 30.12 in 10.0 miles South 10.4 mph - N/A   Scattered Clouds
9:55 AM 41.0°F 39.2°F 93% 30.12 in 10.0 miles South 8.1 mph - N/A   Mostly Cloudy
10:15 AM 42.8°F 39.2°F 87% 30.12 in 10.0 miles South 8.1 mph - N/A   Partly Cloudy
10:35 AM 42.8°F 39.2°F 87% 30.12 in 10.0 miles South 5.8 mph - N/A   Scattered Clouds
10:55 AM 42.8°F 39.2°F 87% 30.12 in 10.0 miles South 4.6 mph - N/A   Mostly Cloudy
11:15 AM 42.8°F 39.2°F 87% 30.11 in 10.0 miles South 5.8 mph - N/A   Mostly Cloudy
11:35 AM 42.8°F 39.2°F 87% 30.10 in 10.0 miles South 4.6 mph - N/A   Overcast
11:55 AM 42.8°F 39.2°F 87% 30.09 in 10.0 miles South 8.1 mph - N/A   Mostly Cloudy
12:15 PM 42.8°F 39.2°F 87% 30.09 in 10.0 miles South 5.8 mph - N/A   Mostly Cloudy
12:35 PM 44.6°F 39.2°F 81% 30.08 in 10.0 miles South 6.9 mph - N/A   Mostly Cloudy
12:55 PM 44.6°F 39.2°F 81% 30.08 in 10.0 miles South 5.8 mph - N/A   Mostly Cloudy
1:15 PM 44.6°F 39.2°F 81% 30.07 in 10.0 miles South 4.6 mph - N/A   Mostly Cloudy
1:35 PM 44.6°F 39.2°F 81% 30.07 in 10.0 miles SSE 4.6 mph - N/A   Overcast
1:55 PM 44.6°F 39.2°F 81% 30.07 in 10.0 miles North - - N/A   Overcast
2:15 PM 44.6°F 39.2°F 81% 30.07 in 10.0 miles North - - N/A   Overcast
2:55 PM 44.6°F 39.2°F 81% 30.05 in 9.0 miles SSE 3.5 mph - N/A   Mostly Cloudy
3:15 PM 44.6°F 39.2°F 81% 30.05 in 10.0 miles SSE 4.6 mph - N/A   Mostly Cloudy
3:35 PM 44.6°F 39.2°F 81% 30.05 in 5.0 miles South 3.5 mph - N/A Rain Light Rain
3:55 PM 44.6°F 41.0°F 87% 30.05 in 6.0 miles Calm Calm - N/A Rain Light Rain
4:15 PM 42.8°F 41.0°F 93% 30.05 in 4.0 miles Calm Calm - N/A Rain Light Rain
4:35 PM 42.8°F 41.0°F 93% 30.04 in 5.0 miles Calm Calm - N/A Rain Light Rain
4:55 PM 42.8°F 41.0°F 93% 30.03 in 6.0 miles SSE 3.5 mph - N/A Rain Light Rain
5:15 PM 42.8°F 41.0°F 93% 30.02 in 5.0 miles South 4.6 mph - N/A Rain Light Rain
5:35 PM 42.8°F 41.0°F 93% 30.02 in 6.0 miles South 3.5 mph - N/A Rain Light Rain
5:55 PM 42.8°F 41.0°F 93% 30.02 in 7.0 miles North - - N/A Rain Light Rain
6:15 PM 42.8°F 41.0°F 93% 30.01 in 8.0 miles SSE 3.5 mph - N/A Rain Light Rain
6:35 PM 42.8°F 41.0°F 93% 30.01 in 7.0 miles SSE 3.5 mph - N/A Rain Light Rain
6:55 PM 42.8°F 41.0°F 93% 30.01 in 6.0 miles South 6.9 mph - N/A Rain Light Rain
7:15 PM 42.8°F 41.0°F 93% 30.00 in 5.0 miles South 4.6 mph - N/A Rain Rain
7:35 PM 42.8°F 41.0°F 93% 30.00 in 6.0 miles South 5.8 mph - N/A Rain Light Rain
7:55 PM 42.8°F 41.0°F 93% 29.99 in 7.0 miles SSE 5.8 mph - N/A Rain Light Rain
8:15 PM 42.8°F 41.0°F 93% 29.98 in 5.0 miles South 5.8 mph - N/A Rain Light Rain
8:35 PM 42.8°F 41.0°F 93% 29.98 in 5.0 miles SSE 8.1 mph - N/A Rain Light Rain
8:55 PM 42.8°F 41.0°F 93% 29.97 in 5.0 miles South 6.9 mph - 0.01 in Rain Light Rain
9:15 PM 41.0°F 39.2°F 93% 29.96 in 4.0 miles South 9.2 mph 19.6 mph 0.01 in Rain Rain
9:35 PM 41.0°F 39.2°F 93% 29.95 in 4.0 miles South 10.4 mph 18.4 mph 0.03 in Rain Rain
9:55 PM 41.0°F 39.2°F 93% 29.95 in 3.0 miles South 8.1 mph 16.1 mph 0.04 in Rain Rain
10:15 PM 41.0°F 39.2°F 93% 29.94 in 3.0 miles South 10.4 mph 19.6 mph 0.01 in Rain Rain
10:35 PM 41.0°F 39.2°F 93% 29.93 in 4.0 miles South 9.2 mph 18.4 mph 0.02 in Rain Light Rain
10:55 PM 41.0°F 39.2°F 93% 29.93 in 5.0 miles South 10.4 mph 20.7 mph 0.02 in Rain Light Rain
11:15 PM 41.0°F 39.2°F 93% 29.93 in 5.0 miles South 12.7 mph 21.9 mph N/A Rain Light Rain
11:35 PM 41.0°F 37.4°F 87% 29.92 in 5.0 miles South 15.0 mph 24.2 mph 0.01 in   Overcast
Moon Phase
Jan. 06 Jan. 11 Jan. 18 Jan. 26 Feb. 03
Sunrise:08:03 AM (PST) Moon Rise:02:13 AM (PST)1/6
Sunset:04:32 PM (PST) Moon Set:12:12 PM (PST)1/6

Copyright © 2014 The Weather Underground, Inc.